Location: Unspecified
(47.8330°N, 0.0000°E)
Time: 18:38:12
(UTC+00:00)

BEESAT - Visible Passes

Search period start: 20 August 2019 00:00
Search period end: 30 August 2019 00:00
Orbit: 701 x 709 km, 98.6° (Epoch: 20 August)

Date Brightness Start Highest point End Pass type
(mag) Time Alt. Az. Time Alt. Az. Time Alt. Az.
20 Aug ? 03:03:37 10° ESE 03:07:22 24° ENE 03:11:07 10° N visible
21 Aug ? 03:45:55 10° SE 03:50:32 53° ENE 03:55:11 10° N visible
22 Aug ? 02:53:19 10° ESE 02:56:39 19° ENE 03:00:02 10° NNE visible
22 Aug ? 04:29:16 10° S 04:33:58 63° WSW 04:38:43 10° NNW visible
23 Aug ? 03:35:17 10° SE 03:39:46 43° ENE 03:44:16 10° N visible
24 Aug ? 02:43:08 10° E 02:45:59 16° ENE 02:48:50 10° NNE visible
24 Aug ? 04:18:22 10° SSE 04:23:07 80° WSW 04:27:56 10° NNW visible
25 Aug ? 03:24:44 10° SE 03:29:00 34° ENE 03:33:19 10° N visible
26 Aug ? 02:33:09 10° E 02:35:19 13° NE 02:37:30 10° NNE visible
26 Aug ? 04:07:33 10° SSE 04:12:18 82° ENE 04:17:06 10° NNW visible
27 Aug ? 03:14:15 10° ESE 03:18:16 28° ENE 03:22:19 10° N visible
28 Aug ? 02:23:39 10° ENE 02:24:40 11° NE 02:25:41 10° NE visible
28 Aug ? 03:56:47 10° SSE 04:01:30 65° ENE 04:06:15 10° N visible
29 Aug ? 03:03:51 10° ESE 03:07:33 23° ENE 03:11:17 10° N visible
29 Aug ? 04:40:22 10° S 04:44:59 51° W 04:49:40 10° NNW visible
